TIME,DELAY(SENSOR),PRES,OXYGEN,RAWTEMP,T(OPTODE),TCPHASE,FLUOR,BETA(BETA700),BETA(BETA412),BETA(BETA440),CDOM,C(CSC),ED(ED412.20),ED(ED444.00),ED(ED489.60),ED(ED554.30),LU(LU412.10),LU(LU443.90),LU(LU489.70),LU(LU554.70),COMP,TILTX,TILTY,CHECK
1352171817,5808,915.6300048828125000,30.6573505401611330,560.3419799804688000,4.4752960205078125,56.9882888793945300,55,100,100,79,82,15550,0,0,0,0,2147120054,2147773778,2147575972,2147568566,837,3,13,18050
1352175413,5811,979.6699829101562000,36.6761512756347660,568.2316284179688000,4.2305030822753910,56.1054191589355500,55,98,100,77,82,15544,0,0,0,0,2147124260,2147775908,2147572406,2147571501,2750,3,13,47941
1352179013,5809,992.6199951171875000,37.4362411499023440,569.6270141601562000,4.1871509552001950,55.9981193542480500,56,98,101,77,82,15542,0,0,0,0,2147121435,2147773184,2147576475,2147567588,3581,3,13,47204
1352182613,5811,995.5599975585938000,36.6426506042480500,570.5819702148438000,4.1574749946594240,56.1282501220703100,55,98,99,79,82,15544,0,0,0,0,2147123008,2147774546,2147573275,2147571428,156,3,13,57635
1352186213,5810,995.2999877929688000,37.3552093505859400,570.8859252929688000,4.1480288505554200,56.0269889831543000,55,99,100,78,83,15539,0,0,0,0,2147121243,2147774153,2147576932,2147565549,188,3,13,65166
1352189813,5807,1001.0100097656250000,36.9832191467285160,570.7606811523438000,4.1519179344177250,56.0792312622070300,54,98,99,78,83,15539,0,0,0,0,2147122386,2147771410,2147571126,2147568493,3405,3,13,56397
1352193413,5811,1004.3900146484375000,36.4797210693359400,570.7026977539062000,4.1537227630615230,56.1618690490722660,55,98,101,78,82,15541,0,0,0,0,2147126180,2147773174,2147571456,2147569472,52,3,13,54638
1352197013,5809,1006.6699829101562000,36.2254409790039060,570.6406860351562000,4.1556468009948730,56.1948814392089840,56,100,101,78,83,15540,0,0,0,0,2147123684,2147778779,2147575360,2147568484,279,3,13,28297
1352200613,5810,1004.4000244140625000,37.1227302551269500,571.0374145507812000,4.1433181762695310,56.0601692199707000,56,99,100,78,84,15541,0,0,0,0,2147119360,2147771611,2147574308,2147566363,291,3,13,38883
1352204213,5809,1000.5900268554688000,37.2737197875976560,570.9113769531250000,4.1472339630126950,56.0378684997558600,55,99,101,77,83,15542,0,0,0,0,2147122176,2147776649,2147574061,2147566582,3574,3,13,10941
1352207813,5808,1000.5800170898438000,38.3725700378418000,571.5391235351562000,4.1277241706848145,55.8752708435058600,56,99,101,77,83,15538,0,0,0,0,2147120594,2147772955,2147573604,2147567817,324,3,13,53198
1352211413,5809,1007.4899902343750000,38.7031593322753900,571.2113037109375000,4.1379132270812990,55.8243103027343750,56,101,100,77,82,15538,0,0,0,0,2147121965,2147774518,2147567990,2147567744,3530,3,13,6057
1352215013,5811,999.9099731445312000,38.3306503295898440,571.6088867187500000,4.1255531311035160,55.8826484680175800,55,98,101,77,82,15536,0,0,0,0,2147122340,2147777654,2147574464,2147569920,3588,3,13,11186
1352218613,5810,999.1300048828125000,38.8014717102050800,571.3779907226562000,4.1327300071716310,55.8132591247558600,55,98,101,78,84,15535,0,0,0,0,2147122477,2147775972,2147572306,2147564187,605,3,13,354
1352222213,5808,1000.0100097656250000,39.3400802612304700,571.3588256835938000,4.1333260536193850,55.7313995361328100,55,100,100,79,82,15534,0,0,0,0,2147122221,2147771712,2147569856,2147570048,370,3,13,22268
1352225813,5808,998.1599731445312000,38.8255310058593750,572.5280761718750000,4.0969719886779785,55.8195991516113300,55,98,101,78,82,15534,0,0,0,0,2147121920,2147772489,2147574134,2147565385,214,3,13,26340
1352229413,5808,1007.8499755859375000,39.3390312194824200,571.4956054687500000,4.1290740966796875,55.7300682067871100,55,98,101,77,82,15533,0,0,0,0,2147120338,2147776347,2147573366,2147568923,357,3,13,46816
1352233013,5808,1014.5700073242188000,37.8093986511230500,570.7305297851562000,4.1528592109680180,55.9558715820312500,55,99,99,77,82,15535,0,0,0,0,2147121554,2147774994,2147571300,2147569782,3595,3,13,29513
1352236613,5808,1010.7299804687500000,37.8608703613281250,570.5546875000000000,4.1583228111267090,55.9422798156738300,55,99,100,79,83,15531,0,0,0,0,2147120164,2147777307,2147577810,2147568521,3383,3,13,2842
1352240213,5809,1009.9199829101562000,37.7664718627929700,570.6530761718750000,4.1552639007568360,55.9572982788085940,55,98,100,78,84,15534,0,0,0,0,2147119222,2147775414,2147572489,2147567597,196,3,13,56611
1352243813,5812,1015.3300170898438000,37.2575683593750000,570.6237792968750000,4.1561741828918460,56.0373497009277340,56,98,100,77,82,15531,0,0,0,0,2147121755,2147773156,2147573202,2147567524,30,3,13,59358
1352247413,5810,1013.9199829101562000,37.9681282043457000,570.5872192382812000,4.1573119163513180,55.9274101257324200,55,99,100,77,83,15525,0,0,0,0,2147124169,2147772809,2147571072,2147568813,3429,3,13,56863
1352251013,5811,1015.2500000000000000,37.6113014221191400,570.3176269531250000,4.1656908988952640,55.9764518737793000,55,99,100,78,82,15523,0,0,0,0,2147123821,2147777426,2147568210,2147567469,3557,3,13,18807
1352254613,5809,1015.3900146484375000,37.8376693725585940,570.3142700195312000,4.1657919883728030,55.9456481933593750,55,99,100,78,82,15525,0,0,0,0,2147122102,2147774637,2147568237,2147571392,180,3,13,25452
1352258213,5809,1013.4500122070312000,37.7374801635742200,570.4127197265625000,4.1627349853515625,55.9594192504882800,56,99,100,79,82,15524,0,0,0,0,2147122285,2147773513,2147570057,2147569645,124,3,13,64947
1352261813,5810,1013.9799804687500000,37.4606590270996100,570.3585815429688000,4.1644167900085450,56.0054512023925800,55,97,102,77,82,15524,0,0,0,0,2147121929,2147776009,2147572544,2147567241,3319,3,13,61706
1352265413,5810,1012.7700195312500000,38.3448104858398440,570.5361938476562000,4.1588969230651855,55.8687400817871100,56,98,102,78,84,15524,0,0,0,0,2147121353,2147776045,2147569453,2147569810,22,3,13,36582
1352269013,5811,1009.1799926757812000,38.7629699707031250,571.0784912109375000,4.1420397758483890,55.8103294372558600,56,98,100,77,82,15520,0,0,0,0,2147119259,2147773869,2147573485,2147569572,3561,3,13,37334
1352272613,5809,1014.2899780273438000,38.4780998229980500,570.9141845703125000,4.1471481323242190,55.8558006286621100,55,102,101,77,83,15522,0,0,0,0,2147122093,2147777700,2147571163,2147569408,3580,3,13,10718
1352276213,5809,1012.3699951171875000,38.0658912658691400,570.6126708984375000,4.1565189361572270,55.9154090881347660,54,100,100,77,82,15521,0,0,0,0,2147121636,2147773732,2147574226,2147570605,279,3,13,61375
1352279813,5809,1008.8900146484375000,38.3975906372070300,571.4091796875000000,4.1317601203918460,55.8743591308593750,56,99,100,79,83,15519,0,0,0,0,2147121609,2147775488,2147572013,2147571584,466,3,13,61845
1352283413,5809,1008.9199829101562000,39.0048103332519500,571.5244750976562000,4.1281762123107910,55.7850494384765600,55,100,101,78,84,15523,0,0,0,0,2147123556,2147775442,2147574774,2147569618,513,3,13,50585
1352287013,5809,1012.0300292968750000,39.9480209350585940,572.0270996093750000,4.1125512123107910,55.6471290588378900,56,99,100,79,83,15520,0,0,0,0,2147119634,2147777106,2147572406,2147566509,3331,3,13,16726
1352290613,5808,1016.2999877929688000,39.4615516662597660,571.4923706054688000,4.1291751861572270,55.7136116027832000,55,98,101,78,84,15523,0,0,0,0,2147122889,2147779364,2147571840,2147569645,113,3,13,48565
1352294213,5811,1009.9799804687500000,39.4230613708496100,571.9304809570312000,4.1155548095703125,55.7236900329589840,56,99,100,78,82,15522,0,0,0,0,2147122258,2147772352,2147572992,2147568676,450,3,13,29699
1352297813,5810,1009.5499877929688000,39.0733108520507800,571.8018188476562000,4.1195559501647950,55.7760810852050800,55,98,100,77,83,15522,0,0,0,0,2147122560,2147771757,2147574281,2147571702,129,3,13,18156
1352301413,5810,1009.7199707031250000,38.9678382873535160,571.5051269531250000,4.1287798881530760,55.7819404602050800,55,98,100,84,82,15317,0,0,0,0,2147123995,2147774125,2147569709,2147568219,3290,3,13,61960
1352305013,5808,1009.8200073242188000,39.6542282104492200,572.0767211914062000,4.1110081672668460,55.6915702819824200,54,99,101,79,81,15317,0,0,0,0,2147123410,2147775945,2147576502,2147569206,3250,3,13,5519
1352308613,5809,996.4299926757812000,39.5764694213867200,573.4647827148438000,4.0678391456604000,55.7172698974609400,55,99,101,78,83,15319,0,0,0,0,2147125568,2147777462,2147577874,2147569206,3456,3,13,14400
1352312213,5811,1009.4000244140625000,40.4757995605468750,572.9202880859375000,4.0847759246826170,55.5718498229980500,55,101,101,77,82,15316,0,0,0,0,2147126701,2147774976,2147573065,2147567360,3503,3,13,4739
1352315813,5810,1011.1400146484375000,39.5523414611816400,572.3574829101562000,4.1022758483886720,55.7092895507812500,55,99,101,77,82,15317,0,0,0,0,2147123373,2147776118,2147577984,2147565120,255,3,13,29756
1352316355,5809,1009.3900146484375000,39.7846603393554700,572.3488769531250000,4.1025447845458980,55.6726417541503900,55,100,101,78,83,15313,0,0,0,0,2147122953,2147777380,2147573732,2147572269,358,3,13,15525
